Lapse_Rate
3.4 2.8 2.8 6.8 6.0 5.6 5.1 5.6 5.8 6.2 5.8 5.3 5.0 4.8 5.0 5.7 5.8 5.8 5.8 6.0 5.9 6.0 6.1 6.2 6.9 6.6 6.6 6.5 6.0 5.4 5.3 5.7 5.7 5.7 5.6 6.0 6.5 6.5 6.1 5.8 6.1 7.3 6.7
3.2 2.8 3.4 7.2 5.9 5.6 5.4 6.0 6.0 5.8 5.6 5.4 4.8 4.6 4.8 4.9 5.3 5.4 5.2 5.5 5.3 5.2 5.5 5.9 6.0 6.0 6.3 6.1 6.2 5.5 5.1 5.0 5.2 5.1 5.2 5.7 6.3 6.4 6.2 5.9 6.0 6.0 6.3
3.5 3.1 4.6 7.4 6.1 5.8 5.4 6.4 6.0 5.4 5.2 5.2 4.9 4.5 4.3 4.4 4.4 4.6 4.1 4.6 5.7 5.4 5.3 4.0 3.8 3.7 4.3 5.1 6.0 5.1 4.6 4.5 4.1 4.1 4.6 6.1 6.5 6.1 5.9 6.0 5.9 6.2 6.0
3.7 4.0 6.0 7.3 7.5 6.3 5.5 5.8 5.9 5.7 5.1 4.7 4.5 3.9 3.8 3.9 4.1 4.0 3.9 3.6 3.5 3.8 4.2 3.7 3.2 3.7 3.5 3.5 4.3 4.9 4.1 3.6 3.8 4.1 5.7 5.9 6.5 6.4 6.2 6.3 6.4 6.0 6.1
4.2 4.5 7.1 7.5 7.3 7.1 6.0 6.0 5.5 5.4 5.0 4.4 4.3 4.1 3.8 3.5 3.5 3.2 2.7 2.9 2.8 2.7 2.6 2.8 2.8 3.3 3.7 3.6 3.8 4.0 3.8 2.8 3.0 4.4 4.9 6.1 6.9 7.0 6.7 6.5 6.5 5.9 5.7
4.2 4.9 7.3 7.3 7.5 7.6 7.0 6.7 5.7 4.7 4.7 4.1 4.4 3.9 3.5 3.4 3.0 2.5 2.5 2.5 1.9 2.1 1.9 2.0 2.2 2.4 3.2 3.7 3.6 3.4 2.9 2.6 2.3 3.7 4.3 5.5 6.9 6.5 7.1 6.6 6.3 6.3 5.9
3.8 4.6 7.0 7.5 7.7 7.8 7.2 6.1 4.8 4.2 4.2 3.3 2.8 2.7 2.7 2.2 1.7 1.6 1.7 1.8 1.8 1.6 1.5 1.5 1.4 1.1 1.9 2.2 2.6 2.7 2.1 1.9 2.4 2.9 3.5 4.8 5.8 6.5 7.1 6.7 6.5 6.5 6.5
3.8 3.4 5.3 7.7 8.3 7.7 7.4 5.4 4.2 3.5 3.4 2.7 2.4 1.8 1.8 1.7 1.0 0.7 0.9 1.2 1.2 0.9 0.8 0.9 0.5 0.7 1.3 0.8 0.9 1.1 1.3 1.3 1.6 2.5 2.7 4.3 4.7 5.6 6.1 6.2 6.6 6.7 6.6
2.7 2.9 3.4 4.9 8.3 8.0 7.6 5.2 3.9 3.0 2.8 2.0 1.6 1.0 0.6 0.0 -0.2 0.1 0.1 0.0 0.0 -0.3 -0.3 -0.5 -0.5 -0.5 0.1 0.2 0.2 0.1 -0.0 0.2 0.7 1.3 2.3 3.4 4.0 4.7 4.7 5.0 5.9 6.3 6.4
2.7 2.5 2.9 3.4 4.0 5.2 6.0 5.4 4.4 3.1 2.3 1.4 0.2 -0.4 -1.0 -1.0 -0.9 -1.3 -1.0 -0.8 -0.8 -0.8 -1.3 -1.9 -2.1 -2.2 -1.7 -1.0 -1.0 -1.1 -1.2 -0.9 0.1 0.8 1.5 2.2 3.4 3.9 4.0 4.3 5.0 5.5 5.8
3.4 3.4 3.0 3.1 3.0 3.2 3.0 3.0 2.1 1.9 1.3 0.3 -0.5 -1.7 -2.9 -3.0 -2.4 -1.4 -1.3 -1.8 -1.5 -1.5 -1.5 -2.1 -2.4 -3.3 -4.4 -3.7 -2.5 -2.4 -2.2 -1.9 -0.8 -0.3 1.0 1.2 2.3 3.2 3.7 3.6 4.2 4.7 5.0
3.2 3.0 3.2 2.8 2.2 1.7 0.9 -0.3 -0.8 -1.3 -2.0 -2.3 -2.9 -3.0 -3.0 -2.3 -2.5 -2.9 -2.9 -2.6 -2.9 -3.4 -3.2 -2.9 -3.4 -4.4 -4.5 -4.3 -3.8 -3.3 -3.0 -2.7 -1.9 -1.2 0.3 1.1 2.1 2.7 3.5 4.2 4.6 4.5 4.9
2.7 3.0 2.2 2.0 1.5 1.2 0.3 -0.8 -1.3 -1.9 -2.2 -2.4 -2.5 -2.8 -2.8 -3.1 -3.2 -3.3 -3.5 -4.0 -4.3 -4.6 -4.4 -4.6 -4.8 -4.8 -4.8 -4.0 -3.6 -4.0 -3.7 -3.3 -3.0 -2.4 -0.5 0.5 1.8 2.8 3.2 3.9 4.3 4.6 4.7
1.7 2.4 1.9 1.6 1.1 0.6 0.6 -0.0 -0.7 -1.0 -1.6 -1.9 -2.2 -2.6 -2.2 -2.6 -2.6 -2.9 -2.8 -3.1 -3.1 -3.6 -3.8 -3.9 -4.0 -4.1 -4.0 -4.1 -3.6 -3.2 -3.6 -3.7 -3.3 -2.4 -1.5 1.1 2.2 3.5 3.9 3.9 4.1 4.4 4.8
1.6 1.5 1.7 1.1 1.3 0.7 0.5 0.1 -0.0 -0.0 -0.7 -1.3 -1.7 -2.1 -2.0 -1.9 -2.1 -2.5 -2.7 -2.6 -2.5 -2.5 -2.4 -2.4 -2.5 -2.8 -3.0 -3.1 -3.3 -3.3 -3.3 -3.0 -3.0 -2.7 -1.7 0.9 1.6 3.2 4.5 4.6 4.9 5.3 5.7
2.0 1.5 1.1 1.5 1.1 0.8 0.4 0.4 0.3 0.1 -0.3 -0.4 -0.7 -1.0 -1.4 -1.5 -1.7 -1.9 -1.9 -2.1 -2.3 -2.2 -2.3 -2.0 -1.8 -1.7 -1.8 -1.8 -2.1 -2.6 -2.6 -2.5 -2.6 -2.1 -1.6 -0.7 1.1 2.3 3.2 2.9 3.0 3.6 4.4
2.0 1.6 1.5 1.3 1.2 1.4 0.9 0.5 0.3 0.4 0.1 0.1 -0.2 -0.5 -0.9 -1.2 -1.1 -1.3 -1.4 -1.2 -1.5 -1.8 -1.7 -1.6 -1.5 -1.2 -0.8 -0.9 -0.8 -1.6 -1.7 -1.5 -1.1 -1.2 -1.3 -1.2 -1.2 -0.2 0.5 0.6 0.6 1.8 2.3
1.8 1.8 2.1 2.9 1.4 1.3 1.1 0.5 0.7 0.6 0.4 0.3 0.4 0.2 -0.1 -0.6 -0.7 -0.7 -0.7 -1.1 -1.4 -1.2 -0.8 -0.4 -0.3 0.5 -0.0 0.1 0.5 -0.1 -0.0 -0.1 -0.5 -0.3 -0.4 -0.2 -0.2 -0.6 -0.4 -0.2 -0.3 -0.3 0.4
1.7 2.1 2.6 2.2 2.0 1.9 1.5 1.3 1.2 0.7 0.8 0.4 0.4 0.4 0.1 -0.2 -0.3 0.0 -0.1 -0.5 -0.6 -0.5 -0.8 -0.2 -0.3 0.3 0.9 0.7 1.3 0.5 0.6 0.7 0.7 0.5 0.4 0.1 -0.1 -0.1 -0.2 -0.4 -0.8 -0.2 0.1
2.3 2.7 2.3 2.2 2.0 1.9 1.3 1.2 1.1 1.2 0.9 0.9 1.0 1.1 0.9 0.6 0.3 0.3 0.4 0.4 0.8 1.0 0.8 0.5 0.6 0.4 0.1 0.2 1.8 1.8 2.0 1.9 2.0 2.1 1.8 1.5 1.1 0.8 0.7 0.4 0.1 -0.1 -0.1
2.6 2.8 2.8 2.3 2.2 1.8 1.8 1.8 1.9 1.6 1.6 1.5 1.7 1.4 1.6 1.4 1.1 1.2 1.1 1.2 1.3 1.8 1.4 1.2 1.2 1.1 1.4 0.9 2.9 3.0 3.3 3.1 3.4 2.7 2.3 2.2 2.0 1.9 1.6 1.2 0.9 0.4 0.5
2.3 3.0 2.9 2.9 2.0 2.5 2.4 1.9 2.0 2.2 2.5 2.7 2.4 2.2 2.0 2.1 2.0 2.0 2.1 2.4 2.5 2.7 2.6 2.6 2.5 2.2 2.0 1.4 2.3 2.9 5.5 4.9 4.4 4.2 3.9 3.7 2.6 2.3 2.3 2.1 1.7 1.0 0.5
3.3 3.0 3.0 2.3 2.3 2.1 2.4 2.0 2.4 2.3 2.3 2.4 2.8 2.8 2.4 2.5 2.6 2.7 2.8 2.9 3.1 3.3 3.5 3.4 3.4 3.4 3.3 3.0 2.8 3.4 5.4 6.7 3.9 3.8 3.7 3.7 3.7 3.6 2.9 2.4 2.4 1.7 1.5
4.0 3.4 3.2 2.8 2.5 2.2 2.3 2.8 2.8 2.5 2.6 2.9 2.7 2.9 2.8 2.7 2.9 3.0 2.9 3.1 3.4 3.4 3.9 4.1 3.7 4.0 4.1 4.3 4.0 4.2 3.8 3.9 4.9 6.2 4.4 4.0 4.0 3.9 3.5 3.0 2.6 2.4 2.2
4.1 3.6 3.3 2.9 3.0 2.6 2.7 3.3 3.2 3.3 3.1 2.6 2.6 2.8 3.0 2.7 3.1 3.2 3.2 3.3 3.4 3.5 3.5 4.0 4.3 4.5 4.8 4.8 4.8 4.7 4.8 5.0 4.4 5.0 6.0 4.3 4.1 3.8 3.4 3.4 3.2 3.2 2.9
4.2 3.8 3.5 3.4 3.5 3.0 3.0 3.3 3.6 3.3 2.3 2.3 2.4 2.8 3.0 3.2 3.1 3.3 3.2 3.4 3.4 3.5 3.8 3.9 3.9 4.2 4.3 4.4 4.7 4.7 5.2 5.9 6.2 6.3 5.8 5.4 4.2 3.3 3.8 3.4 3.9 4.1 3.6
Wind_Speed
5 5 3 12 12 11 13 15 17 18 16 18 19 21 21 21 21 22 23 23 24 21 22 15 15 16 15 15 17 17 17 16 17 16 14 15 12 14 14 13 13 15 15
6 3 7 14 13 13 13 17 16 16 14 15 17 19 19 20 20 19 21 21 21 22 25 24 26 25 17 15 16 17 17 16 15 14 14 13 13 14 13 12 12 14 14
4 2 1 15 13 12 13 14 15 15 15 14 16 16 19 19 20 20 21 20 21 20 20 21 23 23 23 22 18 17 17 15 15 14 13 8 10 11 12 11 11 11 12
4 1 6 14 14 13 14 13 15 15 16 17 16 18 18 19 20 20 20 21 21 21 20 20 21 21 21 20 19 17 16 17 16 14 13 10 5 8 8 10 10 11 10
4 2 15 16 15 15 15 15 16 16 17 16 15 16 17 19 19 20 21 20 21 21 20 19 19 20 19 19 18 16 15 18 17 15 14 14 7 6 6 8 8 9 8
4 5 17 18 17 16 18 16 17 18 18 15 15 15 16 18 19 20 18 18 21 19 19 17 18 18 19 16 18 17 17 16 17 14 16 18 11 4 5 6 6 7 8
4 6 14 18 18 18 17 17 17 18 17 15 16 16 17 19 19 19 19 19 18 19 18 17 17 19 17 18 17 17 15 17 15 15 17 19 20 12 5 5 4 4 5
6 6 7 17 16 18 17 16 18 18 16 15 16 17 17 19 19 18 18 18 18 19 18 16 19 18 17 18 17 18 16 14 14 16 17 16 18 19 20 14 7 1 3
7 9 11 11 13 17 16 16 17 16 16 16 15 17 18 19 19 19 18 18 18 19 18 18 17 18 17 17 17 16 16 16 15 15 16 15 15 16 18 19 20 15 10
7 8 10 13 13 17 16 15 16 16 15 15 17 17 18 19 18 19 17 18 18 18 18 18 17 15 16 17 17 16 15 15 14 13 14 15 13 15 17 16 16 16 18
6 6 10 13 16 16 16 15 15 17 16 16 16 16 16 16 16 17 19 18 18 18 18 17 16 15 14 16 19 17 16 14 12 12 12 13 13 13 13 15 14 15 16
11 8 9 14 14 17 15 15 15 15 13 13 13 14 15 16 16 17 17 17 19 16 17 17 16 17 14 14 13 15 14 13 12 10 12 13 13 12 13 12 13 14 14
13 9 9 13 14 16 14 14 12 12 12 13 13 13 14 13 12 12 12 12 12 14 14 14 14 15 16 13 11 12 11 11 9 9 12 13 13 12 12 12 13 12 13
14 12 11 13 14 15 14 12 13 12 11 11 12 12 12 11 12 12 12 12 13 12 12 12 12 13 14 14 12 11 11 10 9 7 9 13 13 12 11 12 12 13 13
15 13 13 14 14 15 15 13 12 12 11 12 12 12 12 12 11 12 12 12 11 11 11 11 11 12 12 12 11 11 10 10 10 8 7 16 17 16 16 18 17 13 12
14 14 13 12 15 16 13 13 12 12 13 12 11 12 12 12 12 12 11 11 11 10 10 10 11 10 9 9 10 11 10 11 12 11 10 14 19 17 18 18 19 19 20
14 15 14 13 16 14 14 14 13 13 13 12 12 12 13 12 12 11 11 10 9 9 10 9 9 10 9 8 10 10 10 12 12 13 13 12 12 19 17 18 17 17 18
15 16 15 12 14 16 15 14 13 13 12 11 11 12 13 12 11 10 10 9 9 9 9 9 8 6 6 5 6 7 9 11 13 14 14 13 12 11 13 17 16 17 17
17 17 15 14 14 13 15 13 13 14 12 10 11 11 11 11 10 10 10 9 8 9 9 7 7 6 6 5 5 5 9 10 11 13 14 14 15 13 12 14 16 17 17
16 17 15 13 15 14 14 14 12 11 10 9 10 10 10 9 10 10 8 8 8 8 8 8 7 7 6 4 4 5 5 9 9 9 12 11 13 12 13 12 13 12 16
16 17 17 16 15 11 9 9 7 6 6 7 9 12 11 10 9 9 8 8 8 7 5 7 5 7 8 7 2 4 4 3 5 7 7 9 12 10 11 11 12 11 11
18 18 16 16 16 11 9 6 5 7 4 7 10 10 9 10 9 9 9 8 7 6 6 5 5 3 5 7 3 1 2 3 3 3 4 6 8 10 7 9 11 10 10
17 18 17 17 16 12 12 8 8 7 8 5 6 5 7 8 9 10 9 8 8 7 5 5 4 4 3 4 8 3 0 0 2 1 2 3 5 7 6 8 10 8 8
15 15 16 16 15 13 13 11 16 8 9 6 6 6 7 7 9 9 9 9 7 6 5 5 5 4 2 3 2 4 3 2 1 1 2 1 5 5 7 8 8 6 6
12 14 14 15 14 14 12 12 9 10 5 7 7 9 6 7 8 8 8 7 7 6 6 6 4 4 3 2 2 2 2 1 1 1 3 4 4 4 5 10 6 4 5
12 12 13 15 14 14 12 12 11 12 10 9 8 7 5 4 7 7 7 6 6 6 5 4 4 3 2 1 0 1 1 1 2 1 2 4 7 4 7 6 5 4 5
Wind_Direction
192 208 257 134 112 99 89 85 75 66 66 71 68 63 60 59 60 60 59 63 64 73 72 81 87 82 81 83 83 80 75 72 71 70 63 64 82 89 83 72 78 83 84
155 240 256 129 116 103 88 79 82 82 77 74 78 73 71 66 64 67 64 61 62 60 63 64 69 68 70 78 79 79 77 71 69 63 59 54 69 92 90 87 81 90 86
142 290 307 129 119 114 96 94 92 89 81 78 74 78 75 73 71 68 69 68 68 66 68 60 66 65 59 58 68 74 74 68 66 64 57 53 74 89 91 92 93 100 92
148 199 131 125 122 114 109 106 98 94 89 78 75 75 76 75 75 73 70 72 70 67 64 67 63 64 63 58 52 66 71 69 61 58 59 51 83 94 91 93 96 95 90
145 158 133 125 123 119 114 112 106 98 86 82 77 77 77 78 75 73 69 65 68 66 61 60 65 65 62 61 60 58 67 77 64 61 58 48 79 101 98 91 94 97 92
131 124 138 133 130 127 123 121 115 106 95 89 85 81 80 79 75 72 71 69 69 64 66 62 60 62 62 60 62 63 60 67 75 60 54 44 48 93 115 104 95 99 104
97 89 134 135 135 130 126 126 117 107 107 103 98 87 81 79 72 69 65 65 69 67 64 65 64 59 57 64 59 62 64 63 68 64 55 48 44 63 98 105 99 99 105
102 70 97 136 137 129 130 125 116 110 109 105 101 96 88 84 78 73 70 66 66 67 64 64 63 60 52 59 61 60 59 61 66 62 54 47 46 56 54 54 51 67 124
81 83 81 81 132 128 120 118 114 112 108 104 95 88 86 84 77 71 68 66 64 64 63 62 63 60 55 54 60 60 61 58 65 60 54 43 37 54 54 53 49 52 42
100 97 90 80 82 87 108 112 109 109 105 98 95 90 80 74 75 75 70 64 64 63 60 61 62 63 55 51 53 54 56 57 58 58 52 41 37 47 53 55 49 53 54
130 123 114 106 98 90 87 96 104 109 103 94 90 91 86 79 68 64 68 68 64 61 62 63 63 63 60 50 48 45 52 48 52 52 44 29 37 41 46 53 54 53 50
159 149 131 121 111 104 103 94 88 94 92 92 92 84 78 78 77 77 70 65 65 64 62 61 59 56 54 48 34 40 45 46 49 49 38 29 35 41 44 51 55 56 51
164 158 153 133 126 118 118 115 111 108 107 100 93 90 90 85 78 71 68 63 63 52 47 44 46 50 51 52 47 48 47 48 46 43 32 33 34 39 49 50 54 54 55
168 163 156 145 133 127 126 125 125 118 112 105 100 100 98 91 82 73 69 62 56 49 54 49 48 50 55 53 52 52 52 50 49 50 30 39 47 48 54 56 54 55 57
171 164 162 151 140 137 133 134 133 127 116 114 107 104 105 98 91 85 79 71 60 51 49 52 52 50 49 54 54 49 50 57 58 61 49 51 51 52 52 58 60 68 71
169 164 156 152 147 143 139 140 134 130 121 108 103 102 95 96 95 86 77 71 66 60 54 50 48 50 54 60 55 53 58 60 64 67 65 56 53 55 60 54 49 41 48
171 158 160 152 147 144 139 136 134 133 126 118 115 110 104 98 98 97 92 78 68 65 53 50 56 54 54 56 53 63 70 66 70 69 62 60 52 48 52 52 48 41 41
162 161 158 157 153 145 143 139 136 136 127 122 120 116 109 102 101 94 88 81 76 68 62 51 35 43 52 52 54 66 77 78 79 69 61 62 51 49 46 43 41 39 34
163 158 157 152 151 143 136 134 132 135 129 127 125 120 111 100 94 90 86 78 72 69 65 56 54 39 35 48 73 76 76 67 75 70 69 62 48 47 42 32 35 34 33
163 158 151 150 148 144 135 132 127 130 128 129 127 126 119 113 110 104 94 82 66 58 52 51 49 43 36 29 71 89 100 79 86 79 66 66 48 46 38 32 26 20 26
159 154 155 150 153 144 141 141 139 140 139 134 141 141 134 131 124 115 109 99 84 74 56 44 35 29 31 19 110 101 71 66 69 79 70 63 50 43 36 31 23 15 8
162 160 156 154 153 154 151 147 138 141 137 136 140 139 136 135 129 126 128 121 119 111 93 71 51 54 37 25 31 51 129 143 99 70 57 46 39 25 31 26 14 13 12
167 163 158 156 157 154 144 126 118 106 122 134 147 140 140 136 133 130 129 126 122 118 112 101 79 74 75 53 37 12 58 322 332 117 86 53 27 11 11 3 3 9 13
167 160 155 154 156 156 152 146 157 158 159 162 157 143 138 137 131 130 127 126 121 118 116 117 106 91 104 82 82 42 44 23 338 240 165 60 2 10 358 350 350 0 7
153 156 154 153 155 155 159 159 158 150 141 141 141 142 141 141 135 129 125 123 121 116 112 114 121 112 100 107 99 142 112 61 48 319 310 336 343 348 344 336 330 336 357
149 152 154 156 159 159 160 161 160 152 145 145 150 150 154 150 141 132 126 121 115 111 112 112 115 117 124 136 207 201 206 187 165 171 283 322 321 319 321 314 321 331 338